Location: Sternwarte auf dem Internationalen Platz Vogelsang IP
(50.5721°N, 6.4398°E)
Time: 04:55:10
(UTC+01:00)

Transit 2A Rocket - Pass Details

Date: 19 December 2025
Orbit: 581 x 903 km, 66.7° (Epoch: 13 January)

Event Time Altitude Azimuth Distance (km) Brightness Sun altitude
Rises 07:02:17 0° 189° (S) 3,307 8.5 -13.2°
Reaches altitude 10° 07:04:46 10° 181° (S) 2,425 7.8 -12.8°
Maximum altitude 07:09:58 40° 114° (ESE) 1,267 6.8 -12.1°
Drops below altitude 10° 07:15:29 10° 48° (NE) 2,572 8.0 -11.3°
Sets 07:18:11 0° 41° (NE) 3,530 8.7 -10.9°
